CSN637 BGTL-EGPF

Flight info

Callsign CSN637
Flight time 4h 30m
Altitude 35000
Route WENSA2 WENSA DCT 77N070W DCT 75N050W 72N035W 65N015W/M078F370 DCT RATSU/N0454F370 DCT BARKU DCT NESDI N560 ERSON
Aircraft B738/M-SDE2E3FGHIRWXY/LB1

Departure

Time 2026-04-19 01:44
Airport Pituffik Space Base (BGTL)

Arrival

Time 2026-04-19 06:14
Airport Glasgow Airport (EGPF)
Time Latitude Longitude Altitude Speed Heading
2026-04-19 01:35 76.53529 -68.71227 191 ft 0 kts 356°
2026-04-19 01:36 76.53516 -68.71224 204 ft 4 kts 356°
2026-04-19 01:37 76.53489 -68.71213 199 ft 4 kts 351°
2026-04-19 01:37 76.53464 -68.71188 196 ft 4 kts 334°
2026-04-19 01:37 76.53446 -68.71126 195 ft 2 kts 284°
2026-04-19 01:37 76.53446 -68.71118 196 ft 0 kts 282°
2026-04-19 01:40 76.53447 -68.71160 202 ft 5 kts 280°
2026-04-19 01:40 76.53455 -68.71335 196 ft 13 kts 280°
2026-04-19 01:40 76.53425 -68.72058 189 ft 24 kts 246°
2026-04-19 01:40 76.53353 -68.72725 191 ft 19 kts 245°
2026-04-19 01:41 76.53315 -68.73087 190 ft 21 kts 245°
2026-04-19 01:41 76.53255 -68.73692 193 ft 23 kts 255°
2026-04-19 01:41 76.53231 -68.74408 196 ft 25 kts 264°
2026-04-19 01:41 76.53208 -68.75154 188 ft 26 kts 264°
2026-04-19 01:42 76.53191 -68.75771 188 ft 12 kts 258°
2026-04-19 01:42 76.53135 -68.75967 196 ft 11 kts 188°
2026-04-19 01:42 76.53010 -68.75805 194 ft 10 kts 104°
2026-04-19 01:43 76.53012 -68.75495 188 ft 11 kts 84°
2026-04-19 01:43 76.53037 -68.74411 197 ft 75 kts 84°
2026-04-19 01:43 76.53105 -68.71081 199 ft 146 kts 85°
2026-04-19 01:43 76.53211 -68.65920 281 ft 193 kts 84°
2026-04-19 01:44 76.53358 -68.60054 973 ft 201 kts 81°
2026-04-19 01:44 76.53676 -68.54137 1750 ft 214 kts 85°
2026-04-19 01:44 76.53473 -68.47529 2317 ft 229 kts 105°
2026-04-19 01:44 76.52690 -68.41504 2932 ft 236 kts 126°
2026-04-19 01:45 76.51496 -68.36638 3640 ft 238 kts 140°
2026-04-19 01:45 76.50099 -68.32637 4253 ft 249 kts 153°
2026-04-19 01:45 76.48423 -68.30354 4843 ft 260 kts 169°
2026-04-19 01:45 76.46611 -68.30475 5650 ft 262 kts 192°
2026-04-19 01:46 76.44889 -68.33000 6536 ft 262 kts 207°
2026-04-19 01:46 76.43305 -68.36899 7358 ft 264 kts 210°
2026-04-19 01:46 76.41736 -68.41051 8157 ft 266 kts 211°
2026-04-19 01:46 76.40173 -68.45269 9011 ft 267 kts 211°
2026-04-19 01:47 76.38593 -68.49570 9758 ft 271 kts 211°
2026-04-19 01:47 76.37005 -68.53916 10494 ft 273 kts 211°
2026-04-19 01:47 76.35400 -68.58331 11208 ft 276 kts 211°
2026-04-19 01:47 76.33795 -68.62855 11950 ft 279 kts 215°
2026-04-19 01:48 76.32324 -68.68267 12662 ft 283 kts 224°
2026-04-19 01:48 76.31104 -68.74919 13377 ft 290 kts 237°
2026-04-19 01:48 76.30212 -68.82618 14048 ft 294 kts 244°
2026-04-19 01:48 76.29440 -68.90568 14681 ft 298 kts 245°
2026-04-19 01:49 76.28681 -68.98753 15316 ft 302 kts 246°
2026-04-19 01:49 76.27992 -69.07225 15945 ft 307 kts 250°
2026-04-19 01:49 76.27561 -69.16109 16560 ft 314 kts 262°
2026-04-19 01:49 76.27608 -69.25419 17184 ft 321 kts 271°
2026-04-19 01:50 76.27814 -69.34830 17801 ft 325 kts 272°
2026-04-19 01:50 76.28129 -69.44370 18329 ft 331 kts 277°
2026-04-19 01:50 76.28581 -69.53949 18872 ft 335 kts 278°
2026-04-19 01:50 76.29070 -69.63616 19402 ft 339 kts 278°
2026-04-19 01:51 76.29564 -69.73249 19926 ft 342 kts 278°
2026-04-19 01:51 76.30073 -69.83104 20446 ft 346 kts 278°
2026-04-19 01:51 76.30592 -69.93067 20953 ft 350 kts 278°
2026-04-19 01:51 76.31185 -70.03100 21467 ft 355 kts 282°
2026-04-19 01:52 76.31924 -70.13116 21972 ft 359 kts 284°
2026-04-19 01:52 76.32861 -70.23047 22435 ft 367 kts 294°
2026-04-19 01:52 76.34381 -70.31805 22868 ft 377 kts 317°
2026-04-19 01:52 76.36533 -70.38404 23061 ft 390 kts 330°
2026-04-19 01:53 76.39046 -70.43144 23184 ft 402 kts 343°
2026-04-19 01:53 76.41818 -70.45722 23294 ft 413 kts 355°
2026-04-19 01:53 76.44717 -70.46017 23388 ft 422 kts
2026-04-19 01:53 76.47651 -70.44262 23469 ft 431 kts 13°
2026-04-19 01:54 76.50628 -70.41829 23550 ft 441 kts 14°
2026-04-19 01:54 76.53667 -70.39142 23686 ft 449 kts 15°
2026-04-19 01:54 76.56745 -70.36422 24011 ft 452 kts 14°
2026-04-19 01:54 76.59822 -70.33774 24415 ft 452 kts 14°
2026-04-19 01:55 76.62888 -70.31200 24767 ft 454 kts 14°
2026-04-19 01:55 76.66012 -70.28616 25095 ft 457 kts 14°
2026-04-19 01:55 76.69151 -70.26033 25417 ft 459 kts 14°
2026-04-19 01:55 76.72297 -70.23442 25739 ft 461 kts 14°
2026-04-19 01:56 76.75457 -70.20825 26057 ft 462 kts 14°
2026-04-19 01:56 76.78628 -70.18183 26375 ft 464 kts 14°
2026-04-19 01:56 76.81806 -70.15518 26677 ft 466 kts 14°
2026-04-19 01:56 76.84997 -70.12830 26973 ft 468 kts 14°
2026-04-19 01:57 76.88208 -70.10111 27284 ft 470 kts 15°
2026-04-19 01:57 76.91303 -70.05894 27521 ft 464 kts 31°
2026-04-19 01:57 76.93907 -69.97861 27808 ft 453 kts 49°
2026-04-19 01:57 76.95838 -69.87260 28124 ft 444 kts 64°
2026-04-19 01:58 76.97072 -69.74905 28421 ft 436 kts 78°
2026-04-19 01:58 76.97634 -69.61815 28687 ft 430 kts 90°
2026-04-19 01:58 76.97474 -69.48734 28989 ft 423 kts 103°
2026-04-19 01:58 76.96860 -69.36067 29408 ft 420 kts 106°
2026-04-19 01:59 76.96172 -69.23520 29783 ft 418 kts 107°
2026-04-19 01:59 76.95460 -69.11011 30061 ft 418 kts 107°
2026-04-19 01:59 76.94742 -68.98484 30269 ft 420 kts 107°
2026-04-19 01:59 76.94029 -68.85980 30514 ft 420 kts 106°
2026-04-19 02:00 76.93316 -68.73408 30778 ft 421 kts 106°
2026-04-19 02:00 76.92607 -68.60869 31037 ft 421 kts 106°
2026-04-19 02:00 76.91897 -68.48323 31261 ft 422 kts 106°
2026-04-19 02:00 76.91181 -68.35741 31499 ft 422 kts 106°
2026-04-19 02:01 76.90461 -68.23180 31773 ft 422 kts 107°
2026-04-19 02:01 76.89736 -68.10634 32035 ft 422 kts 107°
2026-04-19 02:01 76.89012 -67.98234 32261 ft 423 kts 107°
2026-04-19 02:01 76.88273 -67.85681 32509 ft 423 kts 107°
2026-04-19 02:02 76.87526 -67.73130 32794 ft 423 kts 107°
2026-04-19 02:02 76.86773 -67.60586 33049 ft 423 kts 107°
2026-04-19 02:02 76.86014 -67.48051 33279 ft 424 kts 107°
2026-04-19 02:02 76.85249 -67.35538 33520 ft 424 kts 107°
2026-04-19 02:03 76.84477 -67.23034 33760 ft 424 kts 107°
2026-04-19 02:03 76.83697 -67.10504 33951 ft 425 kts 107°
2026-04-19 02:03 76.82910 -66.97980 34082 ft 426 kts 107°
2026-04-19 02:03 76.82125 -66.85594 34235 ft 427 kts 108°
2026-04-19 02:04 76.81324 -66.73068 34406 ft 427 kts 108°
2026-04-19 02:04 76.80514 -66.60505 34557 ft 428 kts 108°
2026-04-19 02:04 76.79697 -66.47948 34718 ft 428 kts 108°
2026-04-19 02:05 76.78039 -66.22805 34793 ft 431 kts 108°
2026-04-19 02:05 76.76366 -65.97854 34794 ft 428 kts 108°
2026-04-19 02:06 76.74670 -65.72976 34793 ft 426 kts 108°
2026-04-19 02:06 76.72960 -65.48305 34791 ft 424 kts 109°
2026-04-19 02:07 76.71239 -65.23886 34788 ft 424 kts 109°
2026-04-19 02:07 76.69487 -64.99430 34792 ft 424 kts 109°
2026-04-19 02:08 76.67711 -64.75017 34786 ft 425 kts 109°
2026-04-19 02:08 76.65904 -64.50568 34785 ft 426 kts 109°
2026-04-19 02:09 76.64068 -64.26118 34786 ft 428 kts 110°
2026-04-19 02:09 76.62201 -64.01619 34778 ft 429 kts 110°
2026-04-19 02:10 76.60314 -63.77243 34790 ft 430 kts 110°
2026-04-19 02:10 76.58389 -63.52739 34780 ft 431 kts 110°
2026-04-19 02:11 76.56439 -63.28295 34784 ft 432 kts 110°
2026-04-19 02:11 76.54466 -63.03920 34787 ft 432 kts 111°
2026-04-19 02:12 76.52480 -62.79739 34781 ft 432 kts 111°
2026-04-19 02:12 76.50460 -62.55505 34790 ft 431 kts 111°
2026-04-19 02:13 76.48420 -62.31382 34787 ft 431 kts 111°
2026-04-19 02:13 76.46358 -62.07335 34785 ft 430 kts 111°
2026-04-19 02:14 76.44291 -61.83565 34796 ft 429 kts 112°
2026-04-19 02:14 76.42193 -61.59782 34798 ft 429 kts 112°
2026-04-19 02:15 76.40071 -61.36050 34794 ft 429 kts 112°
2026-04-19 02:15 76.37938 -61.12508 34796 ft 429 kts 112°
2026-04-19 02:16 76.35769 -60.88892 34800 ft 429 kts 113°
2026-04-19 02:16 76.33578 -60.65346 34801 ft 430 kts 113°
2026-04-19 02:17 76.31359 -60.41818 34802 ft 430 kts 113°
2026-04-19 02:17 76.29119 -60.18386 34804 ft 431 kts 114°
2026-04-19 02:18 76.26865 -59.95097 34804 ft 432 kts 114°
2026-04-19 02:18 76.24571 -59.71709 34802 ft 432 kts 114°
2026-04-19 02:19 76.22250 -59.48340 34803 ft 433 kts 114°
2026-04-19 02:19 76.19907 -59.25058 34799 ft 434 kts 114°
2026-04-19 02:20 76.16349 -58.90237 34800 ft 434 kts 115°
2026-04-19 02:20 76.13960 -58.67230 34805 ft 434 kts 115°
2026-04-19 02:21 76.11537 -58.44172 34802 ft 434 kts 115°
2026-04-19 02:21 76.09091 -58.21179 34805 ft 434 kts 115°
2026-04-19 02:22 76.06625 -57.98284 34804 ft 434 kts 115°
2026-04-19 02:22 76.04138 -57.75476 34808 ft 434 kts 116°
2026-04-19 02:23 76.01631 -57.52755 34806 ft 434 kts 116°
2026-04-19 02:23 75.99102 -57.30100 34813 ft 434 kts 116°
2026-04-19 02:24 75.96988 -57.11368 34811 ft 433 kts 116°
2026-04-19 02:24 75.94425 -56.88902 34816 ft 433 kts 117°
2026-04-19 02:25 75.91846 -56.66556 34824 ft 432 kts 117°
2026-04-19 02:25 75.89251 -56.44330 34827 ft 431 kts 117°
2026-04-19 02:26 75.86640 -56.22219 34831 ft 430 kts 117°
2026-04-19 02:26 75.84002 -56.00138 34853 ft 435 kts 117°
2026-04-19 02:27 75.81311 -55.77860 34853 ft 438 kts 118°
2026-04-19 02:27 75.78618 -55.55818 34855 ft 437 kts 118°
2026-04-19 02:28 75.75889 -55.33723 34871 ft 436 kts 118°
2026-04-19 02:28 75.73139 -55.11700 34879 ft 437 kts 118°
2026-04-19 02:29 75.70360 -54.89711 34886 ft 438 kts 118°
2026-04-19 02:29 75.67571 -54.67888 34892 ft 437 kts 119°
2026-04-19 02:30 75.64774 -54.46217 34904 ft 438 kts 119°
2026-04-19 02:30 75.61933 -54.24446 34914 ft 438 kts 120°
2026-04-19 02:31 75.59087 -54.02868 34911 ft 434 kts 120°
2026-04-19 02:31 75.56246 -53.81565 34922 ft 431 kts 120°
2026-04-19 02:32 75.53427 -53.60646 34934 ft 428 kts 120°
2026-04-19 02:32 75.50579 -53.39734 34936 ft 427 kts 120°
2026-04-19 02:33 75.47719 -53.18951 34956 ft 428 kts 120°
2026-04-19 02:33 75.44852 -52.98321 34957 ft 428 kts 121°
2026-04-19 02:34 75.41938 -52.77568 34971 ft 431 kts 121°
2026-04-19 02:34 75.38988 -52.56780 34979 ft 433 kts 121°
2026-04-19 02:35 75.35996 -52.35898 34984 ft 437 kts 121°
2026-04-19 02:35 75.32989 -52.15131 34994 ft 441 kts 121°
2026-04-19 02:36 75.29910 -51.94079 34994 ft 443 kts 121°
2026-04-19 02:36 75.26835 -51.73256 34991 ft 438 kts 122°
2026-04-19 02:37 75.23765 -51.52677 34993 ft 434 kts 122°
2026-04-19 02:37 75.20703 -51.32360 35004 ft 431 kts 122°
2026-04-19 02:38 75.17649 -51.12301 35007 ft 428 kts 123°
2026-04-19 02:38 75.14608 -50.92522 35020 ft 429 kts 123°
2026-04-19 02:39 75.11509 -50.72547 35021 ft 432 kts 123°
2026-04-19 02:39 75.08366 -50.52491 35031 ft 437 kts 123°
2026-04-19 02:40 75.05169 -50.32278 35029 ft 441 kts 123°
2026-04-19 02:40 75.01931 -50.11977 35034 ft 444 kts 124°
2026-04-19 02:41 74.98779 -49.91542 35028 ft 442 kts 121°
2026-04-19 02:41 74.95912 -49.70751 35025 ft 436 kts 120°
2026-04-19 02:42 74.93103 -49.50283 35037 ft 435 kts 120°
2026-04-19 02:42 74.90239 -49.29767 35041 ft 434 kts 121°
2026-04-19 02:43 74.87355 -49.09417 35048 ft 434 kts 121°
2026-04-19 02:43 74.84468 -48.89285 35051 ft 434 kts 121°
2026-04-19 02:44 74.81539 -48.69070 35049 ft 435 kts 121°
2026-04-19 02:44 74.78587 -48.48893 35056 ft 436 kts 121°
2026-04-19 02:45 74.75614 -48.28768 35061 ft 437 kts 121°
2026-04-19 02:45 74.72611 -48.08644 35061 ft 438 kts 122°
2026-04-19 02:46 74.69590 -47.88590 35065 ft 439 kts 122°
2026-04-19 02:46 74.66530 -47.68479 35244 ft 442 kts 122°
2026-04-19 02:47 74.65009 -47.58555 35446 ft 441 kts 122°
2026-04-19 02:47 74.63470 -47.48555 35657 ft 440 kts 122°
2026-04-19 02:47 74.61926 -47.38577 35798 ft 441 kts 122°
2026-04-19 02:47 74.60371 -47.28575 35927 ft 442 kts 123°
2026-04-19 02:48 74.58810 -47.18590 36079 ft 442 kts 123°
2026-04-19 02:48 74.57246 -47.08627 36264 ft 442 kts 123°
2026-04-19 02:48 74.55682 -46.98711 36457 ft 441 kts 123°
2026-04-19 02:48 74.54113 -46.88811 36625 ft 441 kts 123°
2026-04-19 02:49 74.52539 -46.78927 36748 ft 442 kts 123°
2026-04-19 02:49 74.50958 -46.69049 36899 ft 442 kts 123°
2026-04-19 02:49 74.49394 -46.59321 37044 ft 441 kts 123°
2026-04-19 02:49 74.47806 -46.49493 37071 ft 443 kts 124°
2026-04-19 02:50 74.44601 -46.29800 37077 ft 443 kts 124°
2026-04-19 02:51 74.39785 -46.00545 37074 ft 441 kts 124°
2026-04-19 02:51 74.36559 -45.81174 37078 ft 440 kts 124°
2026-04-19 02:52 74.33327 -45.61951 37075 ft 439 kts 125°
2026-04-19 02:52 74.30101 -45.42934 37081 ft 438 kts 125°
2026-04-19 02:53 74.26845 -45.23917 37080 ft 438 kts 125°
2026-04-19 02:53 74.23574 -45.04987 37079 ft 438 kts 126°
2026-04-19 02:54 74.20282 -44.86104 37084 ft 438 kts 126°
2026-04-19 02:54 74.16972 -44.67287 37075 ft 439 kts 126°
2026-04-19 02:55 74.13641 -44.48526 37083 ft 439 kts 126°
2026-04-19 02:55 74.10293 -44.29829 37091 ft 440 kts 126°
2026-04-19 02:56 74.06942 -44.11281 37096 ft 440 kts 126°
2026-04-19 02:56 74.03556 -43.92711 37090 ft 441 kts 127°
2026-04-19 02:57 74.00149 -43.74182 37092 ft 441 kts 127°
2026-04-19 02:57 73.96722 -43.55707 37093 ft 441 kts 127°
2026-04-19 02:58 73.93278 -43.37305 37098 ft 441 kts 127°
2026-04-19 02:58 73.89823 -43.19005 37100 ft 441 kts 127°
2026-04-19 02:59 73.86378 -43.00914 37102 ft 441 kts 127°
2026-04-19 02:59 73.82898 -42.82799 37103 ft 440 kts 127°
2026-04-19 03:00 73.79405 -42.64767 37110 ft 440 kts 128°
2026-04-19 03:00 73.75896 -42.46804 37115 ft 440 kts 128°
2026-04-19 03:01 73.72377 -42.28950 37113 ft 439 kts 128°
2026-04-19 03:01 73.68846 -42.11180 37116 ft 439 kts 128°
2026-04-19 03:02 73.65302 -41.93493 37114 ft 439 kts 128°
2026-04-19 03:02 73.61735 -41.75846 37122 ft 440 kts 128°
2026-04-19 03:03 73.58156 -41.58283 37122 ft 440 kts 129°
2026-04-19 03:03 73.54581 -41.40883 37117 ft 441 kts 129°
2026-04-19 03:04 73.50962 -41.23412 37122 ft 441 kts 129°
2026-04-19 03:04 73.47319 -41.05976 37123 ft 442 kts 129°
2026-04-19 03:05 73.43657 -40.88591 37121 ft 443 kts 129°
2026-04-19 03:05 73.39994 -40.71338 37120 ft 444 kts 130°
2026-04-19 03:06 73.36295 -40.54061 37123 ft 444 kts 130°
2026-04-19 03:06 73.32575 -40.36827 37121 ft 445 kts 130°
2026-04-19 03:07 73.28839 -40.19662 37120 ft 445 kts 130°
2026-04-19 03:07 73.25076 -40.02512 37123 ft 445 kts 130°
2026-04-19 03:08 73.21941 -39.88329 37125 ft 446 kts 131°
2026-04-19 03:08 73.18159 -39.71344 37125 ft 445 kts 131°
2026-04-19 03:09 73.14369 -39.54456 37125 ft 445 kts 131°
2026-04-19 03:09 73.10563 -39.37636 37126 ft 445 kts 131°
2026-04-19 03:10 73.06747 -39.20908 37123 ft 444 kts 132°
2026-04-19 03:10 73.02920 -39.04261 37125 ft 444 kts 132°
2026-04-19 03:11 72.99089 -38.87726 37131 ft 443 kts 132°
2026-04-19 03:11 72.95267 -38.71360 37129 ft 443 kts 132°
2026-04-19 03:12 72.91414 -38.54989 37130 ft 442 kts 133°
2026-04-19 03:12 72.87553 -38.38714 37131 ft 442 kts 133°
2026-04-19 03:13 72.83684 -38.22525 37136 ft 441 kts 133°
2026-04-19 03:13 72.79804 -38.06422 37140 ft 441 kts 133°
2026-04-19 03:14 72.75941 -37.90504 37143 ft 441 kts 134°
2026-04-19 03:14 72.72040 -37.74558 37144 ft 440 kts 134°
2026-04-19 03:15 72.68134 -37.58704 37151 ft 440 kts 134°
2026-04-19 03:15 72.64213 -37.42917 37159 ft 440 kts 134°
2026-04-19 03:16 72.60284 -37.27212 37165 ft 440 kts 134°
2026-04-19 03:16 72.56346 -37.11588 37165 ft 440 kts 134°
2026-04-19 03:17 72.52390 -36.96011 37178 ft 440 kts 135°
2026-04-19 03:17 72.48430 -36.80535 37188 ft 439 kts 135°
2026-04-19 03:18 72.44452 -36.65101 37187 ft 439 kts 135°
2026-04-19 03:18 72.40490 -36.49842 37194 ft 439 kts 135°
2026-04-19 03:19 72.36499 -36.34582 37198 ft 439 kts 135°
2026-04-19 03:19 72.32495 -36.19387 37206 ft 439 kts 135°
2026-04-19 03:20 72.28475 -36.04240 37212 ft 439 kts 136°
2026-04-19 03:20 72.24454 -35.89197 37216 ft 439 kts 136°
2026-04-19 03:21 72.20445 -35.74312 37218 ft 438 kts 136°
2026-04-19 03:21 72.16406 -35.59419 37222 ft 438 kts 136°
2026-04-19 03:22 72.12351 -35.44570 37231 ft 438 kts 136°
2026-04-19 03:22 72.08293 -35.29821 37233 ft 437 kts 136°
2026-04-19 03:23 72.04227 -35.15139 37234 ft 437 kts 136°
2026-04-19 03:23 72.00175 -35.00538 37240 ft 437 kts 134°
2026-04-19 03:24 71.96629 -34.84367 37237 ft 441 kts 129°
2026-04-19 03:24 71.93208 -34.67927 37239 ft 441 kts 129°
2026-04-19 03:25 71.89789 -34.51694 37249 ft 440 kts 129°
2026-04-19 03:25 71.86315 -34.35433 37256 ft 440 kts 129°
2026-04-19 03:26 71.82828 -34.19280 37253 ft 440 kts 129°
2026-04-19 03:26 71.79348 -34.03292 37253 ft 440 kts 129°
2026-04-19 03:27 71.75812 -33.87167 37256 ft 440 kts 130°
2026-04-19 03:27 71.72310 -33.71314 37258 ft 440 kts 130°
2026-04-19 03:28 71.68762 -33.55374 37261 ft 441 kts 130°
2026-04-19 03:28 71.65202 -33.39494 37261 ft 441 kts 130°
2026-04-19 03:29 71.61624 -33.23655 37267 ft 442 kts 130°
2026-04-19 03:29 71.58027 -33.07848 37264 ft 443 kts 130°
2026-04-19 03:30 71.54408 -32.92065 37266 ft 444 kts 130°
2026-04-19 03:30 71.50792 -32.76404 37266 ft 444 kts 130°
2026-04-19 03:31 71.47132 -32.60672 37271 ft 445 kts 130°
2026-04-19 03:31 71.43454 -32.44981 37268 ft 446 kts 131°
2026-04-19 03:32 71.39752 -32.29301 37268 ft 447 kts 131°
2026-04-19 03:32 71.36037 -32.13682 37262 ft 448 kts 131°
2026-04-19 03:33 71.32316 -31.98148 37259 ft 449 kts 131°
2026-04-19 03:33 71.28563 -31.82597 37257 ft 449 kts 131°
2026-04-19 03:34 71.24789 -31.67070 37246 ft 450 kts 131°
2026-04-19 03:34 71.20991 -31.51559 37243 ft 450 kts 131°
2026-04-19 03:35 71.17177 -31.36098 37235 ft 451 kts 131°
2026-04-19 03:35 71.13380 -31.20813 37229 ft 451 kts 132°
2026-04-19 03:36 71.09537 -31.05455 37219 ft 452 kts 132°
2026-04-19 03:36 71.05673 -30.90127 37206 ft 453 kts 132°
2026-04-19 03:37 71.01787 -30.74819 37197 ft 453 kts 132°
2026-04-19 03:37 70.97917 -30.59682 37183 ft 454 kts 133°
2026-04-19 03:38 70.94004 -30.44482 37171 ft 454 kts 133°
2026-04-19 03:38 70.90068 -30.29304 37162 ft 455 kts 133°
2026-04-19 03:39 70.86142 -30.14270 37155 ft 455 kts 133°
2026-04-19 03:39 70.82176 -29.99196 37152 ft 456 kts 133°
2026-04-19 03:40 70.78189 -29.84143 37166 ft 457 kts 133°
2026-04-19 03:40 70.74182 -29.69127 37155 ft 458 kts 134°
2026-04-19 03:41 70.70160 -29.54154 37161 ft 458 kts 134°
2026-04-19 03:41 70.66125 -29.39243 37150 ft 459 kts 134°
2026-04-19 03:42 70.62071 -29.24362 37147 ft 459 kts 134°
2026-04-19 03:42 70.58024 -29.09615 37139 ft 460 kts 134°
2026-04-19 03:43 70.53934 -28.94815 37127 ft 461 kts 134°
2026-04-19 03:43 70.49832 -28.80069 37131 ft 461 kts 135°
2026-04-19 03:44 70.45713 -28.65366 37123 ft 461 kts 135°
2026-04-19 03:44 70.41579 -28.50711 37125 ft 460 kts 135°
2026-04-19 03:45 70.37440 -28.36142 37101 ft 460 kts 135°
2026-04-19 03:45 70.33309 -28.21698 37119 ft 458 kts 135°
2026-04-19 03:46 70.29164 -28.07308 37110 ft 459 kts 135°
2026-04-19 03:46 70.25000 -27.92947 37109 ft 459 kts 136°
2026-04-19 03:47 70.20828 -27.78658 37115 ft 460 kts 136°
2026-04-19 03:47 70.16652 -27.64452 37097 ft 461 kts 136°
2026-04-19 03:48 70.12434 -27.50194 37099 ft 461 kts 136°
2026-04-19 03:48 70.08203 -27.35992 37102 ft 462 kts 136°
2026-04-19 03:49 70.03963 -27.21857 37114 ft 462 kts 136°
2026-04-19 03:49 69.99705 -27.07753 37118 ft 462 kts 136°
2026-04-19 03:50 69.95455 -26.93770 37118 ft 463 kts 136°
2026-04-19 03:50 69.91164 -26.79748 37125 ft 463 kts 137°
2026-04-19 03:51 69.86857 -26.65765 37122 ft 463 kts 137°
2026-04-19 03:51 69.82550 -26.51876 37117 ft 463 kts 137°
2026-04-19 03:52 69.78232 -26.38042 37122 ft 462 kts 137°
2026-04-19 03:52 69.74628 -26.26565 37115 ft 462 kts 137°
2026-04-19 03:53 69.69600 -26.10658 37105 ft 462 kts 137°
2026-04-19 03:53 69.65963 -25.99228 37104 ft 461 kts 137°
2026-04-19 03:54 69.61652 -25.85758 37090 ft 461 kts 137°
2026-04-19 03:54 69.57300 -25.72251 37083 ft 460 kts 137°
2026-04-19 03:55 69.52932 -25.58780 37076 ft 460 kts 137°
2026-04-19 03:55 69.48593 -25.45484 37074 ft 461 kts 137°
2026-04-19 03:56 69.44198 -25.32105 37065 ft 462 kts 137°
2026-04-19 03:56 69.39794 -25.18781 37063 ft 462 kts 138°
2026-04-19 03:57 69.35364 -25.05467 37060 ft 463 kts 138°
2026-04-19 03:57 69.30951 -24.92286 37049 ft 465 kts 138°
2026-04-19 03:58 69.26486 -24.79035 37054 ft 466 kts 138°
2026-04-19 03:58 69.22006 -24.65823 37046 ft 466 kts 138°
2026-04-19 03:59 69.17503 -24.52625 37050 ft 466 kts 138°
2026-04-19 03:59 69.13025 -24.39587 37048 ft 466 kts 138°
2026-04-19 04:00 69.08517 -24.26543 37046 ft 465 kts 138°
2026-04-19 04:00 69.04001 -24.13558 37057 ft 465 kts 138°
2026-04-19 04:01 68.99489 -24.00668 37060 ft 464 kts 138°
2026-04-19 04:01 68.92724 -23.81490 37057 ft 464 kts 139°
2026-04-19 04:02 68.88189 -23.68735 37064 ft 464 kts 139°
2026-04-19 04:02 68.83637 -23.56008 37084 ft 465 kts 139°
2026-04-19 04:03 68.79063 -23.43301 37075 ft 465 kts 139°
2026-04-19 04:03 68.74511 -23.30730 37085 ft 466 kts 139°
2026-04-19 04:04 68.69908 -23.18098 37078 ft 466 kts 139°
2026-04-19 04:04 68.65301 -23.05531 37090 ft 466 kts 139°
2026-04-19 04:05 68.60720 -22.93111 37085 ft 465 kts 139°
2026-04-19 04:05 68.56113 -22.80698 37098 ft 464 kts 139°
2026-04-19 04:06 68.51505 -22.68355 37095 ft 463 kts 139°
2026-04-19 04:06 68.46898 -22.56091 37103 ft 463 kts 139°
2026-04-19 04:07 68.42300 -22.43926 37099 ft 462 kts 139°
2026-04-19 04:07 68.37690 -22.31799 37113 ft 461 kts 139°
2026-04-19 04:08 68.33073 -22.19728 37108 ft 461 kts 140°
2026-04-19 04:08 68.28452 -22.07716 37121 ft 460 kts 140°
2026-04-19 04:09 68.23829 -21.95771 37114 ft 460 kts 140°
2026-04-19 04:09 68.19189 -21.83853 37125 ft 460 kts 140°
2026-04-19 04:10 68.14547 -21.71999 37120 ft 460 kts 140°
2026-04-19 04:10 68.09894 -21.60187 37133 ft 460 kts 140°
2026-04-19 04:11 68.05231 -21.48419 37127 ft 461 kts 140°
2026-04-19 04:11 68.00590 -21.36773 37138 ft 461 kts 140°
2026-04-19 04:12 67.95908 -21.25092 37131 ft 461 kts 140°
2026-04-19 04:12 67.91218 -21.13459 37139 ft 461 kts 140°
2026-04-19 04:13 67.86512 -21.01852 37134 ft 461 kts 140°
2026-04-19 04:13 67.81801 -20.90303 37146 ft 461 kts 140°
2026-04-19 04:14 67.77090 -20.78819 37136 ft 461 kts 140°
2026-04-19 04:14 67.72361 -20.67355 37147 ft 461 kts 140°
2026-04-19 04:15 67.67634 -20.55962 37138 ft 461 kts 140°
2026-04-19 04:15 67.62895 -20.44607 37149 ft 460 kts 140°
2026-04-19 04:16 67.58155 -20.33312 37142 ft 460 kts 140°
2026-04-19 04:16 67.53436 -20.22131 37156 ft 459 kts 140°
2026-04-19 04:17 67.48684 -20.10936 37147 ft 459 kts 141°
2026-04-19 04:17 67.43928 -19.99793 37158 ft 459 kts 141°
2026-04-19 04:18 67.39169 -19.88705 37148 ft 459 kts 141°
2026-04-19 04:18 67.34436 -19.77740 37159 ft 458 kts 141°
2026-04-19 04:19 67.29669 -19.66758 37151 ft 458 kts 141°
2026-04-19 04:19 67.24892 -19.55813 37163 ft 458 kts 141°
2026-04-19 04:20 67.20113 -19.44922 37154 ft 458 kts 141°
2026-04-19 04:20 67.15360 -19.34153 37168 ft 458 kts 141°
2026-04-19 04:21 67.10565 -19.23345 37160 ft 458 kts 141°
2026-04-19 04:21 67.05763 -19.12581 37169 ft 458 kts 141°
2026-04-19 04:22 67.00958 -19.01870 37164 ft 458 kts 141°
2026-04-19 04:22 66.96149 -18.91206 37167 ft 457 kts 141°
2026-04-19 04:23 66.91358 -18.80643 37161 ft 457 kts 141°
2026-04-19 04:23 66.86535 -18.70063 37172 ft 457 kts 141°
2026-04-19 04:24 66.81702 -18.59522 37166 ft 457 kts 141°
2026-04-19 04:24 66.76861 -18.49017 37173 ft 457 kts 142°
2026-04-19 04:25 66.72013 -18.38554 37162 ft 457 kts 142°
2026-04-19 04:25 66.67193 -18.28209 37174 ft 457 kts 142°
2026-04-19 04:26 66.62336 -18.17837 37163 ft 457 kts 142°
2026-04-19 04:26 66.57474 -18.07511 37176 ft 457 kts 142°
2026-04-19 04:27 66.52629 -17.97276 37173 ft 457 kts 142°
2026-04-19 04:27 66.47756 -17.87035 37178 ft 456 kts 142°
2026-04-19 04:28 66.42875 -17.76830 37158 ft 456 kts 142°
2026-04-19 04:28 66.38026 -17.66746 37180 ft 456 kts 142°
2026-04-19 04:29 66.33144 -17.56647 37169 ft 455 kts 142°
2026-04-19 04:29 66.28264 -17.46605 37171 ft 455 kts 142°
2026-04-19 04:30 66.23380 -17.36606 37172 ft 455 kts 142°
2026-04-19 04:30 66.18493 -17.26653 37183 ft 455 kts 142°
2026-04-19 04:31 66.13629 -17.16799 37181 ft 454 kts 142°
2026-04-19 04:31 66.08738 -17.06940 37184 ft 454 kts 142°
2026-04-19 04:32 66.03829 -16.97095 37182 ft 454 kts 142°
2026-04-19 04:32 65.98923 -16.87305 37198 ft 454 kts 143°
2026-04-19 04:33 65.94013 -16.77559 37194 ft 454 kts 143°
2026-04-19 04:33 65.89103 -16.67863 37210 ft 453 kts 143°
2026-04-19 04:34 65.84212 -16.58251 37202 ft 453 kts 143°
2026-04-19 04:34 65.79284 -16.48617 37217 ft 453 kts 143°
2026-04-19 04:35 65.74355 -16.39028 37203 ft 453 kts 143°
2026-04-19 04:35 65.69418 -16.29472 37218 ft 453 kts 143°
2026-04-19 04:36 65.64473 -16.19950 37218 ft 453 kts 143°
2026-04-19 04:36 65.59563 -16.10542 37223 ft 453 kts 143°
2026-04-19 04:37 65.54613 -16.01104 37214 ft 453 kts 143°
2026-04-19 04:37 65.49664 -15.91714 37230 ft 452 kts 143°
2026-04-19 04:38 65.44711 -15.82363 37215 ft 453 kts 143°
2026-04-19 04:38 65.39745 -15.73034 37231 ft 452 kts 143°
2026-04-19 04:39 65.35614 -15.65309 37218 ft 452 kts 143°
2026-04-19 04:39 65.30646 -15.56061 37227 ft 452 kts 143°
2026-04-19 04:40 65.25675 -15.46853 37222 ft 452 kts 143°
2026-04-19 04:40 65.20693 -15.37669 37231 ft 452 kts 143°
2026-04-19 04:41 65.15715 -15.28537 37220 ft 452 kts 144°
2026-04-19 04:41 65.10758 -15.19488 37227 ft 451 kts 144°
2026-04-19 04:42 65.05767 -15.10420 37218 ft 451 kts 144°
2026-04-19 04:42 65.00780 -15.01401 37225 ft 451 kts 144°
2026-04-19 04:43 64.95551 -14.93193 37223 ft 450 kts 149°
2026-04-19 04:43 64.90205 -14.85511 37213 ft 450 kts 150°
2026-04-19 04:44 64.84878 -14.77892 37204 ft 450 kts 150°
2026-04-19 04:44 64.79520 -14.70193 37215 ft 450 kts 149°
2026-04-19 04:45 64.74178 -14.62516 37207 ft 450 kts 149°
2026-04-19 04:45 64.68833 -14.54858 37213 ft 450 kts 150°
2026-04-19 04:46 64.63485 -14.47231 37194 ft 450 kts 150°
2026-04-19 04:46 64.58172 -14.39693 37206 ft 449 kts 150°
2026-04-19 04:47 64.52824 -14.32142 37195 ft 449 kts 150°
2026-04-19 04:47 64.47486 -14.24639 37201 ft 448 kts 150°
2026-04-19 04:48 64.42140 -14.17161 37193 ft 448 kts 150°
2026-04-19 04:48 64.36793 -14.09715 37202 ft 448 kts 150°
2026-04-19 04:49 64.31444 -14.02299 37194 ft 448 kts 150°
2026-04-19 04:49 64.28756 -13.98586 36907 ft 450 kts 150°
2026-04-19 04:49 64.26101 -13.94926 37062 ft 451 kts 150°
2026-04-19 04:50 64.20670 -13.87467 37195 ft 457 kts 150°
2026-04-19 04:50 64.15151 -13.79925 37205 ft 466 kts 150°
2026-04-19 04:51 64.09524 -13.72268 37205 ft 474 kts 150°
2026-04-19 04:51 64.03829 -13.64556 37205 ft 481 kts 150°
2026-04-19 04:52 63.98039 -13.56750 37196 ft 485 kts 150°
2026-04-19 04:52 63.92215 -13.48939 37200 ft 486 kts 150°
2026-04-19 04:53 63.86374 -13.41141 37194 ft 487 kts 150°
2026-04-19 04:53 63.80529 -13.33378 37191 ft 486 kts 150°
2026-04-19 04:54 63.74702 -13.25676 37192 ft 484 kts 150°
2026-04-19 04:54 63.68892 -13.18033 37193 ft 482 kts 150°
2026-04-19 04:55 63.63098 -13.10447 37197 ft 480 kts 150°
2026-04-19 04:55 63.57370 -13.02984 37201 ft 479 kts 151°
2026-04-19 04:56 63.51602 -12.95505 37203 ft 478 kts 151°
2026-04-19 04:56 63.45826 -12.88050 37206 ft 478 kts 151°
2026-04-19 04:57 63.40065 -12.80650 37205 ft 478 kts 151°
2026-04-19 04:57 63.34316 -12.73299 37209 ft 479 kts 151°
2026-04-19 04:58 63.28513 -12.65914 37208 ft 480 kts 151°
2026-04-19 04:58 63.22690 -12.58539 37209 ft 482 kts 151°
2026-04-19 04:59 63.16856 -12.51182 37208 ft 483 kts 151°
2026-04-19 04:59 63.11040 -12.43884 37210 ft 484 kts 151°
2026-04-19 05:00 63.05175 -12.36559 37211 ft 484 kts 151°
2026-04-19 05:00 62.99288 -12.29239 37209 ft 485 kts 151°
2026-04-19 05:01 62.93404 -12.21956 37213 ft 485 kts 151°
2026-04-19 05:01 62.87510 -12.14697 37203 ft 485 kts 151°
2026-04-19 05:02 62.81650 -12.07513 37210 ft 485 kts 151°
2026-04-19 05:02 62.75753 -12.00316 37217 ft 485 kts 151°
2026-04-19 05:03 62.69845 -11.93139 37212 ft 484 kts 152°
2026-04-19 05:03 62.63947 -11.86008 37213 ft 484 kts 152°
2026-04-19 05:04 62.58093 -11.78962 37212 ft 484 kts 152°
2026-04-19 05:04 62.52194 -11.71894 37210 ft 483 kts 152°
2026-04-19 05:05 62.46299 -11.64862 37213 ft 483 kts 152°
2026-04-19 05:05 62.40439 -11.57904 37215 ft 483 kts 152°
2026-04-19 05:06 62.34550 -11.50943 37214 ft 483 kts 152°
2026-04-19 05:06 62.28650 -11.44001 37217 ft 483 kts 152°
2026-04-19 05:07 62.22748 -11.37088 37217 ft 483 kts 152°
2026-04-19 05:07 62.16876 -11.30241 37217 ft 483 kts 152°
2026-04-19 05:08 62.08004 -11.19952 37219 ft 484 kts 152°
2026-04-19 05:09 62.02076 -11.13115 37220 ft 484 kts 152°
2026-04-19 05:09 61.96133 -11.06294 37225 ft 485 kts 152°
2026-04-19 05:10 61.90190 -10.99501 37223 ft 485 kts 152°
2026-04-19 05:10 61.84274 -10.92770 37224 ft 485 kts 152°
2026-04-19 05:11 61.78306 -10.86009 37226 ft 486 kts 152°
2026-04-19 05:11 61.72338 -10.79279 37224 ft 486 kts 152°
2026-04-19 05:12 61.66373 -10.72581 37226 ft 486 kts 153°
2026-04-19 05:12 61.60401 -10.65904 37226 ft 486 kts 153°
2026-04-19 05:13 61.54429 -10.59255 37228 ft 486 kts 153°
2026-04-19 05:13 61.48484 -10.52663 37231 ft 486 kts 153°
2026-04-19 05:14 61.42500 -10.46065 37229 ft 486 kts 153°
2026-04-19 05:14 61.36505 -10.39483 37232 ft 486 kts 153°
2026-04-19 05:15 61.30551 -10.32971 37235 ft 486 kts 153°
2026-04-19 05:15 61.24562 -10.26450 37236 ft 485 kts 153°
2026-04-19 05:16 61.18558 -10.19940 37237 ft 485 kts 153°
2026-04-19 05:16 61.12599 -10.13507 37239 ft 485 kts 153°
2026-04-19 05:17 61.06595 -10.07054 37238 ft 486 kts 153°
2026-04-19 05:17 61.00582 -10.00592 37241 ft 486 kts 151°
2026-04-19 05:18 60.95035 -9.92780 37245 ft 486 kts 143°
2026-04-19 05:18 60.89615 -9.84413 37241 ft 487 kts 143°
2026-04-19 05:19 60.84172 -9.76129 37243 ft 487 kts 144°
2026-04-19 05:19 60.78696 -9.67932 37242 ft 487 kts 144°
2026-04-19 05:20 60.73199 -9.59762 37246 ft 487 kts 144°
2026-04-19 05:20 60.67738 -9.51673 37245 ft 487 kts 144°
2026-04-19 05:21 60.62236 -9.43550 37247 ft 487 kts 144°
2026-04-19 05:21 60.56874 -9.35077 37250 ft 487 kts 140°
2026-04-19 05:22 60.51743 -9.26170 37246 ft 488 kts 139°
2026-04-19 05:22 60.46596 -9.17194 37249 ft 488 kts 139°
2026-04-19 05:23 60.41419 -9.08307 37253 ft 488 kts 140°
2026-04-19 05:23 60.36224 -8.99490 37249 ft 488 kts 140°
2026-04-19 05:24 60.31039 -8.90743 37249 ft 488 kts 140°
2026-04-19 05:24 60.26667 -8.83395 37252 ft 488 kts 140°
2026-04-19 05:25 60.21450 -8.74660 37252 ft 488 kts 140°
2026-04-19 05:25 60.16259 -8.66000 37253 ft 488 kts 140°
2026-04-19 05:26 60.11007 -8.57278 37256 ft 488 kts 140°
2026-04-19 05:26 60.05771 -8.48619 37257 ft 488 kts 140°
2026-04-19 05:27 60.00551 -8.40023 37254 ft 488 kts 140°
2026-04-19 05:27 59.95300 -8.31414 37257 ft 488 kts 141°
2026-04-19 05:28 59.90037 -8.22820 37255 ft 488 kts 141°
2026-04-19 05:28 59.84808 -8.14318 37255 ft 488 kts 141°
2026-04-19 05:29 59.79538 -8.05785 37259 ft 488 kts 141°
2026-04-19 05:29 59.74261 -7.97275 37257 ft 488 kts 141°
2026-04-19 05:30 59.68979 -7.88795 37261 ft 488 kts 141°
2026-04-19 05:30 59.63696 -7.80349 37262 ft 488 kts 141°
2026-04-19 05:31 59.58442 -7.71983 37257 ft 488 kts 141°
2026-04-19 05:31 59.53142 -7.63580 37257 ft 488 kts 141°
2026-04-19 05:32 59.47831 -7.55194 37261 ft 488 kts 141°
2026-04-19 05:32 59.42562 -7.46908 37258 ft 488 kts 141°
2026-04-19 05:33 59.37258 -7.38601 37265 ft 488 kts 141°
2026-04-19 05:33 59.31948 -7.30320 37263 ft 487 kts 142°
2026-04-19 05:34 59.26632 -7.22063 37261 ft 487 kts 142°
2026-04-19 05:34 59.21313 -7.13834 37259 ft 487 kts 142°
2026-04-19 05:35 59.15993 -7.05638 37264 ft 487 kts 142°
2026-04-19 05:35 59.10666 -6.97466 37265 ft 487 kts 142°
2026-04-19 05:36 59.05358 -6.89355 37265 ft 487 kts 142°
2026-04-19 05:36 59.00018 -6.81228 37267 ft 487 kts 142°
2026-04-19 05:37 58.94670 -6.73122 37268 ft 487 kts 142°
2026-04-19 05:37 58.89314 -6.65036 37267 ft 487 kts 142°
2026-04-19 05:38 58.83961 -6.56988 37266 ft 487 kts 142°
2026-04-19 05:38 58.78596 -6.48953 37268 ft 488 kts 142°
2026-04-19 05:39 58.73224 -6.40941 37269 ft 488 kts 142°
2026-04-19 05:39 58.67886 -6.33012 37274 ft 488 kts 142°
2026-04-19 05:40 58.62508 -6.25056 37276 ft 488 kts 143°
2026-04-19 05:40 58.57122 -6.17117 37275 ft 488 kts 143°
2026-04-19 05:41 58.51729 -6.09200 37281 ft 488 kts 143°
2026-04-19 05:41 58.46325 -6.01300 37279 ft 488 kts 143°
2026-04-19 05:42 58.40929 -5.93441 37283 ft 488 kts 143°
2026-04-19 05:42 58.35561 -5.85656 37283 ft 488 kts 143°
2026-04-19 05:43 58.30144 -5.77829 37286 ft 488 kts 143°
2026-04-19 05:43 58.24721 -5.70024 37283 ft 488 kts 143°
2026-04-19 05:44 58.19302 -5.62257 37284 ft 488 kts 143°
2026-04-19 05:44 58.13885 -5.54521 37286 ft 488 kts 143°
2026-04-19 05:45 58.08485 -5.46842 37285 ft 488 kts 143°
2026-04-19 05:45 58.03054 -5.39146 37286 ft 488 kts 143°
2026-04-19 05:46 57.97616 -5.31471 37291 ft 488 kts 143°
2026-04-19 05:46 57.92176 -5.23823 37244 ft 484 kts 143°
2026-04-19 05:46 57.89487 -5.20052 36803 ft 478 kts 144°
2026-04-19 05:47 57.86801 -5.16294 36067 ft 482 kts 144°
2026-04-19 05:47 57.84128 -5.12561 35205 ft 489 kts 144°
2026-04-19 05:47 57.81367 -5.08716 34339 ft 496 kts 144°
2026-04-19 05:47 57.78580 -5.04840 33384 ft 501 kts 144°
2026-04-19 05:48 57.75764 -5.00933 32607 ft 502 kts 144°
2026-04-19 05:48 57.72974 -4.97067 32105 ft 497 kts 144°
2026-04-19 05:48 57.70213 -4.93248 31689 ft 490 kts 144°
2026-04-19 05:48 57.67479 -4.89473 31233 ft 486 kts 144°
2026-04-19 05:49 57.64765 -4.85734 30723 ft 482 kts 144°
2026-04-19 05:49 57.62073 -4.82031 30187 ft 480 kts 144°
2026-04-19 05:49 57.59385 -4.78343 29628 ft 476 kts 144°
2026-04-19 05:49 57.56764 -4.74753 29107 ft 471 kts 144°
2026-04-19 05:50 57.54150 -4.71178 28783 ft 463 kts 144°
2026-04-19 05:50 57.51574 -4.67661 28490 ft 453 kts 144°
2026-04-19 05:50 57.49029 -4.64193 28219 ft 456 kts 144°
2026-04-19 05:50 57.46450 -4.60688 27956 ft 462 kts 144°
2026-04-19 05:51 57.43844 -4.57154 27687 ft 462 kts 144°
2026-04-19 05:51 57.41248 -4.53636 27420 ft 459 kts 144°
2026-04-19 05:51 57.38673 -4.50153 27141 ft 456 kts 144°
2026-04-19 05:51 57.36149 -4.46743 26885 ft 453 kts 144°
2026-04-19 05:52 57.33601 -4.43308 26609 ft 451 kts 145°
2026-04-19 05:52 57.31064 -4.39896 26363 ft 448 kts 144°
2026-04-19 05:52 57.28544 -4.36511 26090 ft 447 kts 144°
2026-04-19 05:52 57.26027 -4.33136 25861 ft 445 kts 145°
2026-04-19 05:53 57.23523 -4.29784 25606 ft 444 kts 145°
2026-04-19 05:53 57.21025 -4.26446 25347 ft 443 kts 145°
2026-04-19 05:53 57.18560 -4.23156 25098 ft 441 kts 145°
2026-04-19 05:53 57.16077 -4.19850 24862 ft 440 kts 146°
2026-04-19 05:54 57.13427 -4.17114 24588 ft 435 kts 162°
2026-04-19 05:54 57.10525 -4.15710 24274 ft 426 kts 176°
2026-04-19 05:54 57.07605 -4.15602 23793 ft 414 kts 192°
2026-04-19 05:54 57.04775 -4.16341 23267 ft 409 kts 194°
2026-04-19 05:55 57.01965 -4.17114 22797 ft 405 kts 194°
2026-04-19 05:55 56.99183 -4.17855 22327 ft 402 kts 193°
2026-04-19 05:55 56.96427 -4.18558 21871 ft 399 kts 193°
2026-04-19 05:55 56.93675 -4.19235 21396 ft 397 kts 192°
2026-04-19 05:56 56.90947 -4.19896 20950 ft 394 kts 192°
2026-04-19 05:56 56.88229 -4.20552 20514 ft 391 kts 192°
2026-04-19 05:56 56.85575 -4.21196 20117 ft 387 kts 192°
2026-04-19 05:56 56.82916 -4.21844 19678 ft 384 kts 192°
2026-04-19 05:57 56.80268 -4.22492 19242 ft 382 kts 192°
2026-04-19 05:57 56.77637 -4.23136 18797 ft 380 kts 192°
2026-04-19 05:57 56.75025 -4.23773 18333 ft 377 kts 192°
2026-04-19 05:57 56.72427 -4.24404 17844 ft 375 kts 192°
2026-04-19 05:58 56.69846 -4.25030 17399 ft 372 kts 192°
2026-04-19 05:58 56.67294 -4.25645 17010 ft 368 kts 192°
2026-04-19 05:58 56.64761 -4.26255 16555 ft 366 kts 191°
2026-04-19 05:58 56.62247 -4.26860 16134 ft 364 kts 191°
2026-04-19 05:59 56.59742 -4.27462 15681 ft 361 kts 191°
2026-04-19 05:59 56.57263 -4.28060 15274 ft 359 kts 191°
2026-04-19 05:59 56.54792 -4.28656 14852 ft 357 kts 191°
2026-04-19 05:59 56.52364 -4.29241 14430 ft 355 kts 191°
2026-04-19 06:00 56.49918 -4.29828 13996 ft 353 kts 191°
2026-04-19 06:00 56.47491 -4.30408 13530 ft 351 kts 191°
2026-04-19 06:00 56.45078 -4.30984 13117 ft 348 kts 190°
2026-04-19 06:00 56.42677 -4.31551 12697 ft 347 kts 190°
2026-04-19 06:01 56.40286 -4.32115 12250 ft 345 kts 190°
2026-04-19 06:01 56.37911 -4.32674 11844 ft 342 kts 190°
2026-04-19 06:01 56.35558 -4.33229 11425 ft 340 kts 190°
2026-04-19 06:01 56.33219 -4.33781 11019 ft 338 kts 190°
2026-04-19 06:02 56.30909 -4.34325 10807 ft 330 kts 190°
2026-04-19 06:02 56.28669 -4.34850 10657 ft 320 kts 190°
2026-04-19 06:02 56.26484 -4.35364 10520 ft 312 kts 190°
2026-04-19 06:02 56.24383 -4.35859 10401 ft 304 kts 190°
2026-04-19 06:03 56.22309 -4.36346 10300 ft 295 kts 190°
2026-04-19 06:03 56.20299 -4.36816 10049 ft 292 kts 190°
2026-04-19 06:03 56.18255 -4.37296 9602 ft 296 kts 190°
2026-04-19 06:03 56.16232 -4.37752 9458 ft 289 kts 186°
2026-04-19 06:04 56.14263 -4.37259 9345 ft 285 kts 159°
2026-04-19 06:04 56.12622 -4.35440 9307 ft 270 kts 138°
2026-04-19 06:04 56.11268 -4.33120 8895 ft 269 kts 135°
2026-04-19 06:04 56.09954 -4.30757 8564 ft 266 kts 134°
2026-04-19 06:05 56.08675 -4.28460 8424 ft 254 kts 135°
2026-04-19 06:05 56.07434 -4.26255 8208 ft 247 kts 135°
2026-04-19 06:05 56.06333 -4.23969 7932 ft 241 kts 114°
2026-04-19 06:05 56.06053 -4.22084 7699 ft 235 kts 86°
2026-04-19 06:06 56.06348 -4.19260 7388 ft 228 kts 71°
2026-04-19 06:06 56.06839 -4.16565 7047 ft 227 kts 66°
2026-04-19 06:06 56.07379 -4.13915 6730 ft 226 kts 66°
2026-04-19 06:06 56.07922 -4.11291 6389 ft 224 kts 66°
2026-04-19 06:07 56.08172 -4.08540 5991 ft 231 kts 98°
2026-04-19 06:07 56.07421 -4.06024 5535 ft 236 kts 140°
2026-04-19 06:07 56.05992 -4.05040 5500 ft 212 kts 185°
2026-04-19 06:07 56.04706 -4.05903 5364 ft 199 kts 223°
2026-04-19 06:08 56.03804 -4.07799 4785 ft 204 kts 247°
2026-04-19 06:08 56.03226 -4.10115 4292 ft 204 kts 251°
2026-04-19 06:08 56.02683 -4.12462 3782 ft 204 kts 251°
2026-04-19 06:08 56.02028 -4.14726 3309 ft 206 kts 242°
2026-04-19 06:09 56.01241 -4.16800 2944 ft 193 kts 236°
2026-04-19 06:09 56.00421 -4.18540 2889 ft 173 kts 233°
2026-04-19 06:09 55.99649 -4.20033 2890 ft 158 kts 232°
2026-04-19 06:09 55.98893 -4.21460 2861 ft 156 kts 231°
2026-04-19 06:10 55.98151 -4.22847 2911 ft 152 kts 232°
2026-04-19 06:10 55.97445 -4.24163 2899 ft 144 kts 232°
2026-04-19 06:10 55.96753 -4.25456 2683 ft 142 kts 231°
2026-04-19 06:10 55.96079 -4.26715 2500 ft 139 kts 231°
2026-04-19 06:11 55.95422 -4.27939 2301 ft 134 kts 231°
2026-04-19 06:11 55.94784 -4.29131 2125 ft 131 kts 231°
2026-04-19 06:11 55.94150 -4.30317 1948 ft 134 kts 231°
2026-04-19 06:12 55.92855 -4.32762 1526 ft 137 kts 231°
2026-04-19 06:12 55.92198 -4.34005 1274 ft 138 kts 230°
2026-04-19 06:12 55.91537 -4.35234 1064 ft 136 kts 227°
2026-04-19 06:12 55.90872 -4.36438 794 ft 138 kts 228°
2026-04-19 06:13 55.90218 -4.37661 611 ft 135 kts 227°
2026-04-19 06:13 55.89574 -4.38871 458 ft 134 kts 229°
2026-04-19 06:13 55.88936 -4.40081 295 ft 134 kts 226°
2026-04-19 06:13 55.88298 -4.41267 141 ft 131 kts 227°
2026-04-19 06:14 55.87677 -4.42431 18 ft 130 kts 228°
2026-04-19 06:14 55.87123 -4.43474 16 ft 91 kts 226°
2026-04-19 06:14 55.86833 -4.44014 13 ft 49 kts 226°
2026-04-19 06:14 55.86666 -4.44270 15 ft 11 kts 179°
2026-04-19 06:15 55.86620 -4.44184 14 ft 11 kts 101°
2026-04-19 06:15 55.86618 -4.44137 16 ft 0 kts 89°
2026-04-19 06:15 55.86618 -4.44127 15 ft 3 kts 89°
2026-04-19 06:16 55.86619 -4.44043 14 ft 10 kts 89°
2026-04-19 06:16 55.86644 -4.43923 15 ft 12 kts 50°
2026-04-19 06:16 55.86709 -4.43799 14 ft 15 kts 51°
2026-04-19 06:16 55.86716 -4.43631 14 ft 15 kts 139°
2026-04-19 06:17 55.86675 -4.43596 14 ft 1 kts 147°
2026-04-19 06:17 55.86668 -4.43577 14 ft 2 kts 116°
2026-04-19 06:17 55.86663 -4.43549 14 ft 3 kts 104°
2026-04-19 06:17 55.86660 -4.43521 16 ft 2 kts 100°
2026-04-19 06:18 55.86658 -4.43498 14 ft 2 kts 97°
2026-04-19 06:18 55.86657 -4.43473 14 ft 2 kts 97°
2026-04-19 06:18 55.86655 -4.43456 14 ft 1 kts 97°
2026-04-19 06:18 55.86655 -4.43452 14 ft 0 kts 97°